Temp
-3 -2 -2 -1 -1 1 0 -1 0 2 1 1 1 1 2 3 3 4 4 5 5 5 4 4 5 6 5 6 6 6 6 6 6 6 6 6 6 6 6 6 6 6 6 6
-3 -3 -2 -1 0 1 1 -0 -1 0 1 1 1 2 2 3 3 4 4 5 4 4 5 4 4 5 5 5 5 6 6 6 6 6 6 6 6 6 6 6 6 6 6 6
-3 -2 -2 -2 0 1 2 2 2 1 -0 0 2 2 3 3 3 3 3 4 3 3 4 4 4 4 5 5 5 5 5 6 5 6 6 6 6 6 6 6 6 6 6 5
-3 -2 -2 -0 0 2 2 2 2 1 1 1 2 3 4 4 3 3 3 3 3 3 3 3 3 3 4 5 5 5 5 5 5 5 5 6 6 6 5 5 5 5 5 5
-3 -2 -1 -1 0 1 1 2 2 1 2 2 2 2 5 4 3 4 3 3 3 4 3 4 4 3 4 5 5 5 5 5 5 5 5 5 5 5 5 5 5 5 5 5
-2 -2 -2 -2 -1 -0 0 1 0 1 1 1 2 2 4 4 4 4 4 4 3 3 3 4 3 3 3 3 4 5 4 4 4 4 4 5 4 4 5 4 4 4 5 4
-3 -2 -2 -2 -1 -0 -0 0 -0 -1 -1 -1 2 2 4 3 3 3 3 4 3 3 2 3 3 3 3 3 3 4 4 4 4 4 4 4 4 4 3 4 3 4 4 4
-3 -3 -2 -2 -1 -1 -0 1 1 0 -2 -1 2 2 3 4 3 3 3 3 3 2 2 2 3 3 3 3 3 3 3 4 4 4 4 4 3 3 4 3 3 3 4 4
-2 -3 -2 -2 -1 -1 -0 -0 0 1 2 1 2 2 3 3 2 2 3 3 3 2 2 2 2 2 3 4 4 2 3 3 3 2 3 3 3 3 3 3 3 4 4 4
-2 -3 -3 -2 -2 -1 -0 -0 -0 0 -2 1 2 3 3 2 2 1 2 2 2 2 3 3 3 3 3 3 3 3 3 3 3 3 3 3 3 3 2 2 3 3 3 3
-2 -2 -3 -2 -2 -2 -1 -1 -0 0 1 -2 -1 2 3 2 2 1 2 2 2 2 2 2 3 3 3 3 3 3 3 3 3 3 3 3 3 2 2 2 3 3 2 3
-2 -2 -4 -3 -3 -2 -1 -1 -1 -0 -1 0 0 1 3 2 2 2 2 1 0 2 2 2 2 2 3 3 3 3 3 3 3 3 2 2 2 2 2 2 2 2 3 3
-2 -3 -3 -3 -3 -2 -2 -1 -1 -1 -0 -1 -1 1 2 2 2 2 1 0 -0 0 1 2 2 2 2 2 3 3 3 3 3 3 2 2 1 1 1 2 2 2 2 3
-3 -2 -2 -1 -1 -1 -1 -1 -1 -1 -1 -1 -0 2 1 1 1 1 0 0 0 1 1 2 3 2 2 2 2 2 2 2 2 2 1 1 1 1 1 1 1 1 1 1
-3 -2 -2 -2 -1 -1 -1 -2 -2 -2 -1 -2 -1 -0 -0 0 0 -0 -0 -0 -0 1 1 1 1 2 1 1 1 1 1 1 1 0 0 0 0 0 0 0 0 1 1 1
-3 -3 -3 -2 -2 -2 -1 -2 -2 -2 -2 -2 -2 -2 -1 -1 -2 -1 -1 -0 -0 0 1 1 0 1 1 0 1 1 0 0 -0 -0 -0 -1 -1 -1 -0 -0 -0 -0 0 1
-3 -3 -3 -3 -3 -3 -2 -1 -1 -1 -1 -2 -2 -2 -2 -2 -2 -2 -1 -1 -1 -0 -0 0 -0 0 1 0 0 0 -0 -0 -0 -1 -1 -1 -1 -1 -1 -0 -0 -0 0 0
-3 -3 -4 -3 -4 -6 -1 -1 -1 -2 -2 -3 -3 -2 -2 -2 -1 -2 -2 -2 -1 -1 -0 -0 -0 0 0 -0 -0 -0 -0 -1 -1 -1 -1 -1 -1 -1 -1 -1 -1 -0 -0 -0
-4 -3 -4 -4 -4 -2 -2 -1 -2 -2 -2 -2 -3 -3 -4 -3 -2 -2 -3 -3 -2 -1 -1 -0 -0 -0 -1 -1 -1 -1 -1 -1 -1 -1 -1 -1 -1 -1 -1 -1 -1 -1 -1 -0
-4 -4 -4 -4 -3 -2 -2 -2 -3 -3 -4 -4 -3 -4 -4 -3 -3 -3 -3 -3 -3 -2 -1 -1 -0 -1 -1 -1 -1 -1 -1 -1 -1 -1 -2 -2 -2 -2 -1 -1 -1 -1 -1 -1
-4 -4 -4 -4 -3 -3 -3 -3 -3 -3 -4 -4 -4 -4 -3 -3 -3 -3 -3 -3 -3 -3 -3 -2 -2 -1 -2 -2 -2 -2 -2 -1 -2 -2 -2 -2 -2 -2 -2 -2 -2 -2 -2 -1
-4 -4 -4 -4 -4 -4 -4 -4 -4 -4 -4 -4 -4 -4 -4 -4 -4 -4 -4 -3 -3 -3 -3 -3 -3 -3 -2 -2 -2 -2 -2 -2 -2 -2 -2 -2 -2 -2 -2 -2 -2 -2 -2 -2
-4 -4 -4 -4 -4 -4 -4 -4 -4 -4 -4 -4 -4 -4 -4 -4 -4 -4 -4 -4 -4 -4 -4 -4 -4 -4 -3 -3 -3 -2 -2 -2 -3 -3 -3 -3 -3 -3 -3 -3 -3 -3 -3 -3
-4 -4 -4 -4 -4 -4 -4 -4 -5 -5 -4 -4 -4 -4 -4 -4 -4 -4 -4 -4 -4 -4 -4 -5 -4 -4 -4 -4 -4 -3 -3 -3 -3 -3 -3 -3 -2 -4 -4 -3 -3 -3 -3 -3
-4 -4 -4 -4 -5 -5 -5 -5 -5 -5 -5 -5 -5 -5 -5 -4 -4 -4 -4 -4 -5 -4 -5 -5 -5 -5 -5 -5 -5 -4 -4 -4 -4 -4 -4 -4 -4 -4 -3 -4 -4 -4 -4 -3
-4 -4 -5 -5 -5 -5 -5 -5 -6 -5 -5 -5 -5 -4 -5 -5 -5 -4 -4 -4 -4 -5 -5 -5 -5 -5 -5 -6 -5 -5 -5 -5 -4 -4 -4 -4 -4 -4 -4 -4 -4 -5 -4 -3
Height
3032 3036 3039 3044 3052 3062 3065 3070 3076 3081 3085 3088 3092 3095 3100 3102 3105 3108 3110 3112 3117 3121 3127 3130 3131 3136 3139 3142 3145 3148 3150 3153 3155 3157 3159 3161 3163 3166 3167 3170 3171 3172 3173 3174
3035 3039 3044 3051 3056 3062 3067 3071 3077 3080 3085 3090 3092 3095 3098 3101 3102 3104 3107 3110 3113 3117 3124 3128 3127 3132 3135 3138 3141 3143 3147 3150 3152 3154 3156 3158 3160 3162 3163 3166 3166 3168 3169 3169
3036 3041 3047 3051 3057 3063 3067 3072 3076 3080 3083 3087 3090 3092 3093 3095 3098 3102 3104 3106 3109 3114 3120 3125 3124 3127 3131 3134 3137 3141 3143 3146 3148 3149 3151 3153 3156 3158 3159 3160 3162 3163 3164 3164
3040 3044 3050 3053 3058 3063 3066 3071 3074 3077 3080 3082 3085 3089 3087 3090 3093 3098 3100 3101 3105 3109 3112 3118 3117 3121 3125 3129 3132 3136 3138 3141 3143 3146 3148 3150 3152 3153 3154 3155 3157 3158 3159 3158
3045 3047 3052 3058 3061 3063 3066 3070 3074 3078 3081 3084 3088 3092 3084 3087 3092 3093 3096 3098 3101 3103 3109 3112 3112 3115 3119 3121 3127 3130 3133 3135 3137 3140 3142 3145 3147 3148 3150 3150 3151 3152 3153 3153
3047 3050 3052 3056 3061 3063 3067 3072 3076 3079 3082 3087 3089 3091 3087 3089 3091 3092 3094 3096 3098 3100 3104 3106 3108 3109 3113 3116 3120 3123 3127 3129 3132 3134 3136 3139 3140 3143 3144 3145 3145 3145 3146 3146
3051 3054 3057 3058 3063 3067 3071 3074 3080 3086 3090 3091 3088 3092 3088 3089 3088 3089 3091 3093 3095 3097 3099 3100 3103 3106 3108 3111 3115 3118 3121 3124 3126 3128 3130 3132 3134 3136 3138 3139 3139 3139 3138 3138
3054 3059 3059 3061 3065 3068 3073 3074 3077 3081 3086 3085 3087 3086 3085 3084 3086 3088 3089 3089 3091 3093 3094 3094 3096 3099 3101 3106 3108 3111 3114 3117 3119 3122 3123 3125 3128 3130 3130 3131 3130 3132 3131 3130
3055 3058 3060 3063 3065 3069 3072 3074 3078 3078 3079 3078 3080 3080 3081 3082 3084 3084 3085 3085 3087 3089 3091 3092 3093 3095 3094 3096 3102 3105 3107 3110 3113 3115 3117 3119 3120 3121 3124 3125 3124 3123 3123 3122
3055 3057 3060 3063 3067 3070 3071 3075 3077 3076 3081 3078 3077 3077 3077 3080 3081 3082 3083 3084 3084 3086 3086 3087 3088 3090 3090 3090 3093 3096 3098 3102 3104 3106 3109 3111 3112 3113 3115 3115 3116 3115 3114 3113
3055 3057 3063 3064 3066 3068 3072 3073 3076 3079 3080 3080 3080 3078 3076 3078 3080 3080 3082 3083 3083 3084 3084 3084 3084 3085 3085 3085 3086 3089 3091 3093 3096 3099 3100 3102 3103 3105 3107 3108 3108 3107 3106 3105
3053 3056 3060 3064 3064 3066 3069 3072 3075 3077 3080 3079 3079 3081 3079 3079 3078 3079 3080 3081 3079 3078 3080 3081 3082 3082 3081 3081 3082 3082 3084 3086 3087 3089 3092 3094 3096 3097 3099 3099 3099 3098 3097 3096
3054 3055 3059 3063 3067 3066 3067 3069 3071 3074 3076 3077 3080 3079 3077 3078 3078 3079 3079 3078 3075 3077 3076 3077 3077 3077 3077 3076 3076 3076 3076 3078 3081 3083 3083 3085 3087 3088 3089 3089 3090 3089 3088 3086
3052 3055 3056 3057 3058 3060 3061 3064 3069 3072 3072 3073 3073 3074 3075 3076 3077 3077 3075 3072 3071 3071 3071 3070 3069 3069 3069 3069 3069 3070 3071 3072 3074 3075 3077 3079 3081 3082 3082 3082 3082 3081 3080 3078
3052 3053 3055 3056 3057 3057 3059 3060 3063 3066 3067 3068 3068 3069 3070 3071 3070 3069 3068 3067 3066 3066 3066 3064 3063 3063 3062 3063 3064 3065 3066 3067 3068 3070 3071 3072 3073 3074 3075 3075 3074 3073 3071 3069
3050 3052 3053 3054 3055 3056 3056 3057 3058 3060 3062 3063 3064 3063 3065 3066 3065 3063 3062 3061 3060 3060 3059 3058 3057 3056 3057 3057 3058 3059 3060 3062 3064 3065 3066 3067 3068 3068 3068 3068 3067 3065 3063 3062
3049 3050 3052 3053 3053 3054 3054 3051 3053 3055 3057 3059 3059 3060 3061 3060 3059 3058 3057 3054 3054 3053 3052 3051 3051 3050 3051 3052 3053 3055 3056 3058 3059 3060 3061 3061 3062 3061 3061 3061 3059 3057 3056 3054
3048 3048 3050 3050 3052 3053 3048 3048 3049 3049 3052 3054 3055 3056 3055 3054 3054 3053 3051 3050 3049 3047 3046 3044 3043 3043 3044 3045 3046 3049 3051 3052 3054 3055 3055 3056 3056 3056 3055 3054 3053 3051 3049 3046
3046 3048 3049 3050 3049 3048 3046 3046 3047 3048 3049 3049 3049 3050 3050 3050 3051 3047 3047 3046 3044 3042 3040 3038 3037 3038 3038 3038 3040 3042 3045 3047 3048 3049 3049 3050 3050 3049 3048 3047 3046 3044 3041 3039
3045 3047 3049 3050 3049 3046 3044 3044 3044 3046 3047 3045 3046 3047 3047 3047 3046 3045 3044 3043 3040 3037 3035 3033 3032 3031 3031 3032 3035 3037 3040 3041 3042 3043 3043 3043 3043 3042 3042 3040 3039 3036 3035 3032
3042 3044 3045 3047 3046 3044 3042 3044 3044 3045 3047 3042 3043 3044 3044 3044 3043 3042 3040 3038 3036 3034 3031 3029 3027 3027 3027 3029 3030 3030 3032 3034 3035 3036 3036 3036 3036 3035 3034 3033 3031 3029 3028 3026
3038 3041 3041 3043 3044 3044 3041 3041 3043 3042 3039 3040 3042 3042 3041 3040 3039 3038 3036 3034 3033 3031 3028 3027 3025 3024 3024 3025 3025 3026 3027 3028 3029 3029 3029 3029 3028 3028 3026 3025 3024 3022 3021 3019
3039 3039 3040 3041 3039 3038 3037 3037 3038 3039 3039 3038 3038 3037 3036 3036 3035 3034 3032 3031 3029 3027 3025 3024 3023 3022 3021 3020 3020 3021 3021 3021 3022 3022 3022 3021 3020 3018 3017 3016 3015 3014 3013 3013
3036 3037 3036 3037 3035 3035 3034 3034 3034 3035 3035 3035 3033 3032 3030 3028 3028 3027 3026 3025 3024 3023 3021 3020 3019 3017 3017 3016 3016 3015 3016 3015 3015 3014 3013 3012 3009 3006 3006 3006 3005 3004 3005 3005
3033 3033 3033 3033 3033 3032 3032 3029 3030 3030 3028 3027 3026 3024 3022 3020 3019 3017 3018 3018 3015 3016 3016 3014 3013 3012 3012 3011 3010 3010 3009 3008 3008 3007 3005 3003 3001 2999 2997 2996 2995 2995 2996 2997
3028 3029 3030 3031 3030 3029 3027 3026 3024 3023 3022 3019 3016 3015 3013 3010 3008 3007 3007 3006 3006 3007 3007 3007 3007 3007 3005 3004 3003 3003 3002 3002 3001 3000 2998 2997 2995 2994 2992 2990 2988 2988 2988 2989
Wind_Speed
34 20 28 32 29 20 22 13 21 23 15 9 15 19 10 13 13 19 24 23 39 33 25 17 28 30 29 29 30 30 29 26 26 24 22 21 20 20 20 20 21 21 23 24
24 18 21 13 19 12 19 19 10 12 16 11 10 15 14 19 17 15 21 24 37 41 30 17 29 29 29 30 30 30 30 29 28 26 25 24 23 23 22 22 22 23 23 25
21 21 14 19 17 15 16 21 24 14 16 13 9 16 20 22 21 20 23 19 15 26 31 27 30 31 31 31 31 30 31 30 31 29 27 27 25 24 24 25 24 25 25 27
13 23 16 19 13 12 19 14 13 12 13 4 13 5 20 22 20 22 20 20 21 30 31 32 35 35 34 33 35 33 33 33 33 31 30 28 27 27 27 27 27 26 27 29
15 11 20 14 11 9 12 15 11 10 10 3 7 6 9 11 15 13 15 18 21 24 29 33 34 36 37 42 37 36 36 35 33 32 32 29 28 28 27 29 30 31 30 32
20 19 14 15 13 10 17 16 9 8 3 3 11 8 9 11 9 12 14 16 17 19 24 40 37 36 34 37 34 39 38 37 35 32 31 31 32 30 31 30 31 32 33 34
16 13 11 17 12 12 14 18 5 2 1 3 6 13 7 4 4 8 16 19 17 18 18 20 25 38 40 34 35 36 38 38 36 35 33 31 31 35 41 33 32 35 36 35
5 5 10 16 13 13 18 16 4 3 4 5 7 6 6 14 15 15 15 12 16 24 25 27 25 26 33 33 38 40 40 39 39 36 36 44 47 48 49 45 44 40 38 39
6 3 13 21 17 16 14 9 7 1 2 3 7 6 9 7 5 7 8 9 8 9 14 19 25 28 31 32 28 39 39 39 43 39 38 37 36 36 34 32 35 37 39 40
4 7 16 17 14 12 11 8 3 2 1 2 4 4 6 10 11 7 8 7 7 8 9 12 18 20 25 30 28 33 39 41 41 41 44 45 41 40 38 36 41 42 40 41
7 3 8 14 14 17 14 12 6 6 3 1 0 1 11 17 13 9 8 5 5 7 8 9 11 15 18 24 24 25 33 42 45 43 38 40 41 47 42 44 43 42 41 40
7 7 7 9 11 16 18 14 13 5 3 4 3 3 12 7 11 12 12 10 12 19 14 13 12 12 15 20 24 28 29 27 28 32 37 41 39 39 43 43 39 38 36 36
9 3 7 6 9 16 19 21 19 16 11 6 4 4 10 9 12 13 11 9 18 20 23 17 18 22 21 21 21 24 26 29 31 31 31 31 34 35 35 34 33 34 34 34
14 7 3 4 2 5 17 27 21 17 14 17 23 17 8 9 12 10 13 23 29 29 28 30 32 26 25 24 23 21 22 23 25 27 27 26 28 29 29 29 29 30 31 32
13 7 11 7 6 6 8 10 21 26 29 17 25 23 24 21 20 21 25 28 32 24 20 20 22 22 22 22 20 18 18 17 18 19 21 22 23 24 26 26 27 29 30 31
13 6 10 11 12 12 11 12 16 24 27 28 30 31 25 21 21 19 23 26 26 24 21 21 23 23 19 20 19 19 19 18 19 20 21 21 22 23 24 26 27 28 29 30
10 13 6 3 10 10 11 18 20 18 18 23 26 24 22 24 25 28 25 20 18 20 21 21 20 21 19 21 23 21 19 20 20 22 21 21 21 23 24 25 27 28 29 30
8 10 8 1 3 1 5 8 8 15 18 16 21 22 22 23 20 14 16 16 17 19 20 21 20 21 22 24 25 25 23 22 22 21 22 22 21 23 23 24 27 28 29 29
9 10 3 3 7 6 15 13 9 7 7 12 10 10 10 13 9 11 10 17 20 19 19 19 21 18 19 24 27 27 25 24 24 24 24 24 25 26 26 27 29 29 30 30
12 11 8 4 3 3 3 3 3 7 8 8 8 10 10 9 8 8 16 17 16 17 17 17 18 19 20 20 23 27 24 25 27 27 26 28 29 29 30 32 32 31 30 28
14 12 12 10 7 6 6 6 8 5 6 10 8 9 9 10 11 12 14 16 17 17 17 15 13 12 15 16 17 22 25 26 27 28 32 31 32 32 32 34 33 31 30 28
8 9 11 13 7 7 8 10 9 9 11 10 9 11 11 11 12 14 16 16 17 18 17 16 13 11 14 18 19 19 20 25 27 29 31 33 34 34 36 35 33 30 29 27
7 10 6 7 7 10 9 12 11 14 13 14 15 17 20 21 19 20 21 21 18 17 19 18 14 14 14 15 17 19 21 24 27 30 32 35 38 39 37 36 34 32 29 22
15 12 12 10 11 15 13 13 15 15 18 20 23 25 25 28 27 26 24 23 22 20 19 21 18 15 16 18 19 20 21 23 25 27 29 30 30 31 36 38 34 30 31 23
13 9 15 17 14 13 13 18 20 21 24 26 29 32 33 34 34 34 31 29 29 26 23 22 23 22 20 19 17 18 18 19 19 21 22 22 22 22 23 25 27 26 26 27
18 18 17 14 15 15 16 18 25 29 31 33 36 35 33 33 34 32 31 31 33 33 31 28 26 25 23 24 21 21 22 22 23 24 25 25 24 24 22 20 21 24 25 31
Wind_Direction
196 174 175 183 183 183 199 139 186 225 226 266 189 210 198 211 231 237 225 224 220 225 216 244 240 227 231 234 237 236 235 234 236 233 232 229 231 233 231 239 247 256 265 274
165 198 147 170 162 188 193 181 179 157 215 215 225 216 216 220 245 239 233 221 222 221 227 221 255 240 237 235 236 238 235 232 234 233 232 232 233 236 243 249 256 265 269 274
145 176 180 163 185 185 183 180 183 209 176 184 200 245 238 233 232 234 245 234 221 228 229 236 239 253 250 243 239 239 239 235 235 239 239 240 243 245 249 252 257 263 271 275
132 147 149 165 148 161 160 176 163 159 171 183 177 278 231 235 235 233 236 243 228 216 217 227 247 238 249 252 243 239 239 237 238 239 242 241 242 247 252 262 267 270 269 274
147 119 142 142 141 154 145 159 164 154 170 348 185 252 272 214 224 244 251 250 243 237 222 212 230 237 239 246 243 244 241 238 237 239 242 244 250 257 264 269 269 271 273 275
137 144 142 139 163 145 150 149 133 152 130 298 222 210 275 201 214 212 219 241 252 262 228 221 219 228 232 238 240 240 240 237 235 235 242 249 263 273 270 272 274 276 276 275
147 145 137 116 147 130 151 150 115 96 200 212 189 208 138 102 266 244 217 207 198 220 245 253 239 237 239 239 241 239 239 238 236 239 244 253 256 259 265 269 276 279 275 275
116 151 169 143 136 155 162 159 129 189 181 169 163 215 222 234 238 241 246 250 226 219 218 225 242 250 250 238 234 239 239 241 244 246 253 261 263 265 269 272 272 269 277 282
131 129 181 181 164 159 173 225 229 354 1 112 186 208 215 236 209 233 221 225 231 232 236 241 237 239 253 261 260 241 242 243 250 251 257 258 259 257 260 268 274 275 276 279
89 116 186 182 181 179 173 190 181 85 68 233 170 200 194 183 166 179 168 188 204 225 244 249 252 241 245 255 252 244 241 245 251 257 258 256 251 253 266 277 272 273 274 276
137 162 168 193 195 197 188 185 156 169 235 186 121 60 169 170 180 196 186 207 255 263 269 270 265 261 257 257 257 250 246 246 252 258 263 253 252 259 256 263 272 276 279 282
166 160 153 181 184 197 195 209 199 175 203 232 355 289 154 170 217 237 265 301 293 281 267 263 267 277 278 271 264 256 254 253 250 251 252 255 260 259 260 267 273 277 280 282
166 162 129 186 240 228 221 206 199 213 231 225 175 230 217 251 271 279 299 292 287 292 293 278 273 281 282 283 273 263 259 255 255 253 252 255 257 259 262 266 271 272 274 278
179 178 200 167 164 207 229 227 217 213 217 224 218 210 202 303 323 313 268 274 277 286 286 283 285 286 281 273 269 260 258 259 256 255 258 259 260 264 267 269 273 277 280 283
199 203 229 230 221 219 248 229 221 222 229 226 234 241 252 262 265 265 267 271 277 278 286 282 282 290 285 269 263 260 258 255 254 253 254 256 260 264 268 272 276 280 284 285
227 228 240 240 254 259 245 232 221 225 236 245 252 259 255 272 285 279 274 273 281 287 282 277 279 280 280 263 258 255 256 257 253 254 258 264 268 273 277 281 284 285 286 287
211 224 231 222 241 247 268 251 247 246 238 232 242 258 267 263 258 272 286 284 290 287 287 284 279 279 266 258 252 249 250 253 255 259 263 267 273 278 283 287 287 288 289 290
217 211 197 240 178 245 248 256 257 235 246 243 237 250 254 265 272 280 285 295 293 291 290 287 278 266 262 252 252 247 248 252 256 261 264 267 271 278 284 289 291 290 291 291
200 211 187 202 212 273 275 271 248 206 220 227 230 232 243 265 293 292 285 297 302 299 293 287 282 277 267 255 252 248 252 254 259 262 265 267 274 283 288 293 295 293 293 292
206 208 212 197 273 280 221 253 189 169 179 216 228 237 257 282 281 266 287 297 307 310 306 295 280 269 256 250 254 250 253 257 262 265 265 270 275 280 285 289 295 292 290 292
211 216 228 235 234 249 249 257 258 237 193 216 226 251 269 283 290 292 301 312 314 316 317 318 304 268 248 255 261 257 254 252 254 258 267 267 274 278 284 289 292 288 287 287
210 205 220 227 236 254 245 260 242 223 228 237 254 271 280 292 294 297 302 304 305 310 314 311 310 291 265 260 260 265 258 254 258 261 264 268 273 277 283 286 286 284 282 276
216 212 216 207 222 242 254 266 268 248 259 263 271 280 287 288 290 295 296 296 299 301 301 303 298 286 280 271 266 263 261 259 260 262 267 272 276 277 278 280 280 280 278 270
225 233 231 235 256 257 265 253 253 257 268 275 281 286 289 290 290 290 287 286 286 288 290 297 302 294 281 277 274 271 267 267 269 273 276 281 283 284 273 277 281 278 273 257
234 246 239 244 250 257 263 263 268 273 277 279 282 286 288 289 290 288 282 275 276 276 279 282 288 291 285 277 274 274 275 273 275 278 284 292 298 296 295 283 276 271 270 250
246 253 256 255 255 251 260 281 281 283 286 287 286 287 287 289 290 288 283 276 270 268 269 272 276 276 280 281 274 271 275 276 277 280 284 286 287 291 292 295 289 272 270 259